sat.trackr.live / text

‹ back to catalog

STARLINK-37802

NORAD 69318 · 2026-119Y

PAYLOAD ACTIVE UNKNOWN

§ Identity

Operator
Country
US
Launch date
2026-05-30
Launch site
AFWTR
Launch vehicle
Mass (kg)
RCS (m²)

Purposes: comms

External: N2YO · Heavens-Above · Gunter

§ Orbital elements

Epoch: 2026-09-19T07:06:25.099776Z

Period
93.90 min
Inclination
97.2844°
Eccentricity
0.0001608
Mean motion
15.33479007 rev/d
Perigee alt
464.3 km
Apogee alt
466.5 km
Semi-major
6,843.6 km
B*
5.9081e-4
RAAN
287.1218°
Arg perigee
93.5455°
Mean anomaly
266.5972°
Rev number
1,848

§ Raw data

STARLINK-378021 69318U 26119Y   26262.29612384  .00019067  00000+0  59081-3 0  99972 69318  97.2844 287.1218 0001608  93.5455 266.5972 15.33479007 18485

JSON: /api/v1/satellites/69318 · /tle

For live sub-satellite position, see the globe view (requires WebGL).

§ Visibility from observer

Set your observer location to see the next 7 days of passes ≥ 10°. The values pass through the URL so the page stays shareable.

No JS? Fill the form by hand. The geolocation button needs JavaScript.